Location: Buchloe
(48.0161°N, 10.7316°E)
Time: 04:11:19
(UTC+02:00)

ISS - Pass Details

Date: 13 July 2025
Orbit: 413 x 417 km, 51.6° (Epoch: 12 July)

Event Time Altitude Azimuth Distance (km) Brightness Sun altitude
Rises 00:22:00 0° 286° (WNW) 2,353 0.5 -18.8°
Reaches altitude 10° 00:24:09 10° 292° (WNW) 1,491 -0.5 -18.9°
Maximum altitude 00:27:24 46° 8° (N) 573 -2.7 -19.1°
Enters shadow 00:30:33 11° 82° (E) 1,461 -1.1 -19.2°
